Radiation Dose at Monitoring Post of Fukushima Daini Nuclear Power Station
Date,Time,MP-1(microSv/h),MP-2(microSv/h),MP-3(microSv/h),MP-4(microSv/h),MP-5(microSv/h),MP-6(microSv/h),MP-7(microSv/h),Wind Direction,Wind Velocity(m/s),Rain
2017/12/22,00:00,0.340,0.207,0.349,0.326,0.306,0.171,0.103,west,1.9,No
2017/12/22,00:10,0.340,0.207,0.349,0.325,0.306,0.171,0.103,west-northwest,1.7,No
2017/12/22,00:20,0.341,0.207,0.349,0.326,0.308,0.170,0.104,southwest,0.9,No
2017/12/22,00:30,0.340,0.207,0.348,0.325,0.308,0.171,0.102,-,CALM,No
2017/12/22,00:40,0.341,0.208,0.347,0.325,0.308,0.171,0.103,west-southwest,1.6,No
2017/12/22,00:50,0.341,0.208,0.348,0.326,0.307,0.171,0.102,west-southwest,1.7,No
2017/12/22,01:00,0.341,0.206,0.348,0.326,0.306,0.171,0.102,-,CALM,No
2017/12/22,01:10,0.341,0.208,0.348,0.326,0.308,0.171,0.102,-,CALM,No
2017/12/22,01:20,0.341,0.208,0.348,0.324,0.308,0.171,0.103,east-southeast,0.6,No
2017/12/22,01:30,0.341,0.207,0.348,0.325,0.307,0.171,0.103,-,CALM,No
2017/12/22,01:40,0.341,0.209,0.348,0.327,0.306,0.170,0.102,north-northwest,1.1,No
2017/12/22,01:50,0.341,0.208,0.348,0.326,0.307,0.171,0.103,northwest,2.3,No
2017/12/22,02:00,0.341,0.207,0.347,0.325,0.308,0.170,0.102,northwest,3.2,No
2017/12/22,02:10,0.341,0.207,0.350,0.325,0.308,0.171,0.102,northeast,1.4,No
2017/12/22,02:20,0.341,0.208,0.348,0.325,0.306,0.171,0.103,north-northwest,2.0,No
2017/12/22,02:30,0.341,0.208,0.348,0.325,0.305,0.171,0.103,-,CALM,No
2017/12/22,02:40,0.340,0.206,0.347,0.325,0.306,0.171,0.103,south-southeast,1.0,No
2017/12/22,02:50,0.340,0.208,0.348,0.324,0.308,0.171,0.102,south-southwest,2.4,No
2017/12/22,03:00,0.341,0.207,0.347,0.325,0.307,0.171,0.102,southwest,2.1,No
2017/12/22,03:10,0.341,0.208,0.348,0.325,0.306,0.170,0.103,west-southwest,3.4,No
2017/12/22,03:20,0.340,0.207,0.347,0.325,0.307,0.170,0.101,west-southwest,3.5,No
2017/12/22,03:30,0.340,0.207,0.349,0.325,0.308,0.170,0.103,west-southwest,2.8,No
2017/12/22,03:40,0.341,0.208,0.349,0.324,0.307,0.170,0.102,west-southwest,3.6,No
2017/12/22,03:50,0.340,0.208,0.348,0.325,0.307,0.170,0.102,southwest,3.4,No
2017/12/22,04:00,0.340,0.207,0.347,0.326,0.306,0.170,0.102,west-southwest,2.2,No
2017/12/22,04:10,0.341,0.207,0.347,0.325,0.307,0.169,0.102,west,2.1,No
2017/12/22,04:20,0.341,0.207,0.348,0.324,0.306,0.171,0.103,west-southwest,1.8,No
2017/12/22,04:30,0.340,0.208,0.347,0.326,0.307,0.170,0.103,west-northwest,1.9,No
2017/12/22,04:40,0.339,0.207,0.348,0.324,0.307,0.170,0.102,west,2.7,No
2017/12/22,04:50,0.340,0.207,0.347,0.325,0.307,0.171,0.102,west-southwest,1.7,No
2017/12/22,05:00,0.341,0.207,0.349,0.325,0.307,0.170,0.102,south-southwest,1.1,No
2017/12/22,05:10,0.340,0.207,0.347,0.326,0.307,0.171,0.102,south-southwest,1.7,No
2017/12/22,05:20,0.340,0.207,0.348,0.325,0.306,0.171,0.102,southwest,1.8,No
2017/12/22,05:30,0.340,0.207,0.347,0.325,0.307,0.170,0.102,west-southwest,1.9,No
2017/12/22,05:40,0.340,0.207,0.347,0.324,0.306,0.170,0.102,west,2.1,No
2017/12/22,05:50,0.340,0.207,0.347,0.326,0.307,0.170,0.103,west-northwest,1.8,No
2017/12/22,06:00,0.340,0.207,0.347,0.325,0.307,0.170,0.103,west-northwest,1.8,No
2017/12/22,06:10,0.341,0.207,0.348,0.324,0.306,0.170,0.102,north-northwest,1.5,No
2017/12/22,06:20,0.340,0.207,0.348,0.325,0.306,0.170,0.102,northwest,1.1,No
2017/12/22,06:30,0.340,0.207,0.349,0.324,0.306,0.171,0.102,-,CALM,No
2017/12/22,06:40,0.339,0.207,0.348,0.324,0.307,0.171,0.103,west-southwest,0.9,No
2017/12/22,06:50,0.340,0.207,0.348,0.324,0.307,0.170,0.102,west,1.3,No
2017/12/22,07:00,0.340,0.207,0.347,0.325,0.306,0.170,0.102,west-southwest,5.3,No
2017/12/22,07:10,0.340,0.207,0.347,0.324,0.305,0.170,0.102,west-southwest,5.0,No
2017/12/22,07:20,0.340,0.207,0.350,0.324,0.307,0.171,0.103,west-southwest,4.1,No
2017/12/22,07:30,0.340,0.208,0.349,0.324,0.308,0.169,0.103,west-southwest,4.4,No
2017/12/22,07:40,0.339,0.207,0.347,0.324,0.307,0.170,0.102,west,3.7,No
2017/12/22,07:50,0.340,0.207,0.346,0.324,0.306,0.172,0.101,west,2.6,No
2017/12/22,08:00,0.340,0.207,0.348,0.324,0.306,0.170,0.102,west,2.2,No
2017/12/22,08:10,0.340,0.207,0.348,0.322,0.307,0.171,0.102,west-northwest,2.0,No
2017/12/22,08:20,0.339,0.208,0.348,0.323,0.306,0.170,0.103,west-northwest,2.4,No
2017/12/22,08:30,0.340,0.207,0.347,0.323,0.307,0.171,0.102,west,1.8,No
2017/12/22,08:40,0.341,0.207,0.348,0.323,0.307,0.170,0.103,west-southwest,2.0,No
2017/12/22,08:50,0.340,0.207,0.347,0.323,0.307,0.170,0.102,southwest,2.3,No
2017/12/22,09:00,0.341,0.208,0.348,0.323,0.306,0.170,0.102,southwest,2.2,No
2017/12/22,09:10,0.340,0.208,0.347,0.323,0.307,0.170,0.102,south-southwest,0.9,No
2017/12/22,09:20,0.340,0.208,0.348,0.325,0.308,0.170,0.102,south,0.6,No
2017/12/22,09:30,0.341,0.207,0.346,0.324,0.305,0.170,0.102,southeast,0.8,No
2017/12/22,09:40,0.340,0.207,0.347,0.323,0.306,0.170,0.102,-,CALM,No
2017/12/22,09:50,0.340,0.207,0.348,0.326,0.309,0.171,0.103,northeast,0.6,No
2017/12/22,10:00,0.340,0.206,0.346,0.323,0.305,0.170,0.102,east,0.6,No
2017/12/22,10:10,0.341,0.207,0.347,0.325,0.309,0.171,0.103,east-southeast,1.2,No
2017/12/22,10:20,0.339,0.206,0.347,0.323,0.306,0.170,0.102,east-southeast,1.6,No
2017/12/22,10:30,0.339,0.207,0.347,0.324,0.309,0.170,0.103,south-southeast,1.3,No
2017/12/22,10:40,0.337,0.206,0.346,0.324,0.305,0.171,0.103,east,1.3,No
2017/12/22,10:50,0.338,0.204,0.347,0.323,0.308,0.170,0.102,east,1.2,No
2017/12/22,11:00,0.339,0.206,0.345,0.324,0.307,0.171,0.102,east,1.0,No
2017/12/22,11:10,0.337,0.205,0.347,0.323,0.307,0.172,0.102,east,1.0,No
2017/12/22,11:20,0.338,0.206,0.348,0.327,0.308,0.170,0.103,east-southeast,1.4,No
2017/12/22,11:30,0.338,0.205,0.346,0.324,0.309,0.170,0.102,east,1.1,No
2017/12/22,11:40,0.337,0.205,0.347,0.325,0.308,0.171,0.103,southeast,1.1,No
2017/12/22,11:50,0.339,0.207,0.347,0.324,0.307,0.171,0.102,southeast,1.9,No
2017/12/22,12:00,0.336,0.206,0.346,0.324,0.307,0.171,0.102,east-southeast,1.0,No
2017/12/22,12:10,0.338,0.207,0.346,0.324,0.306,0.170,0.102,south-southeast,0.8,No
2017/12/22,12:20,0.338,0.206,0.346,0.323,0.309,0.171,0.103,east-southeast,1.8,No
2017/12/22,12:30,0.337,0.206,0.346,0.325,0.307,0.170,0.102,east,1.8,No
2017/12/22,12:40,0.339,0.208,0.348,0.325,0.308,0.172,0.102,east,1.7,No
2017/12/22,12:50,0.337,0.205,0.345,0.325,0.309,0.171,0.103,east,1.6,No
2017/12/22,13:00,0.340,0.207,0.348,0.324,0.310,0.171,0.101,southeast,1.2,No
2017/12/22,13:10,0.339,0.206,0.345,0.325,0.308,0.171,0.102,southeast,1.1,No
2017/12/22,13:20,0.340,0.206,0.348,0.324,0.309,0.171,0.101,south-southeast,2.4,No
2017/12/22,13:30,0.340,0.206,0.347,0.328,0.307,0.170,0.102,south-southeast,3.7,No
2017/12/22,13:40,0.340,0.206,0.347,0.324,0.309,0.170,0.101,south,4.1,No
2017/12/22,13:50,0.341,0.208,0.347,0.324,0.309,0.170,0.102,south,2.8,No
2017/12/22,14:00,0.340,0.207,0.346,0.324,0.306,0.169,0.102,south-southeast,4.3,No
2017/12/22,14:10,0.340,0.208,0.347,0.325,0.308,0.170,0.102,south-southeast,4.2,No
2017/12/22,14:20,0.341,0.206,0.346,0.323,0.305,0.170,0.101,south,3.9,No
2017/12/22,14:30,0.340,0.207,0.347,0.326,0.308,0.170,0.102,south,4.8,No
2017/12/22,14:40,0.342,0.208,0.347,0.324,0.307,0.171,0.102,south-southwest,1.3,No
2017/12/22,14:50,0.340,0.207,0.348,0.324,0.308,0.172,0.101,southwest,0.7,No
2017/12/22,15:00,0.339,0.207,0.347,0.328,0.307,0.171,0.102,south-southwest,2.0,No
2017/12/22,15:10,0.339,0.207,0.349,0.327,0.307,0.172,0.103,south-southwest,4.9,No
2017/12/22,15:20,0.339,0.206,0.345,0.326,0.310,0.172,0.102,south-southwest,3.5,No
2017/12/22,15:30,0.340,0.206,0.347,0.325,0.309,0.171,0.102,south-southwest,2.2,No
2017/12/22,15:40,0.342,0.207,0.350,0.326,0.309,0.170,0.102,south-southwest,3.2,No
2017/12/22,15:50,0.340,0.208,0.347,0.324,0.309,0.169,0.102,south-southwest,4.8,No
2017/12/22,16:00,0.340,0.207,0.347,0.325,0.308,0.170,0.102,south-southwest,4.2,No
2017/12/22,16:10,0.339,0.208,0.348,0.325,0.307,0.172,0.102,southwest,3.5,No
2017/12/22,16:20,0.340,0.207,0.348,0.325,0.308,0.172,0.102,southwest,4.6,No
2017/12/22,16:30,0.340,0.206,0.347,0.326,0.306,0.172,0.102,southwest,6.2,No
2017/12/22,16:40,0.339,0.207,0.348,0.325,0.308,0.171,0.102,southwest,6.5,No
2017/12/22,16:50,0.341,0.207,0.348,0.325,0.307,0.171,0.102,southwest,6.3,No
2017/12/22,17:00,0.340,0.206,0.346,0.326,0.308,0.171,0.103,southwest,5.6,No
2017/12/22,17:10,0.340,0.208,0.348,0.325,0.308,0.170,0.102,southwest,5.7,No
2017/12/22,17:20,0.340,0.207,0.348,0.325,0.308,0.172,0.103,southwest,4.2,No
2017/12/22,17:30,0.342,0.207,0.347,0.324,0.307,0.171,0.103,southwest,3.9,No
2017/12/22,17:40,0.340,0.207,0.349,0.327,0.306,0.172,0.102,southwest,3.0,No
2017/12/22,17:50,0.340,0.207,0.347,0.326,0.308,0.171,0.104,southwest,2.1,No
2017/12/22,18:00,0.341,0.207,0.348,0.326,0.307,0.171,0.102,south-southwest,5.7,No
2017/12/22,18:10,0.340,0.207,0.347,0.326,0.307,0.171,0.102,south-southwest,5.4,No
2017/12/22,18:20,0.342,0.207,0.349,0.325,0.307,0.171,0.102,southwest,5.1,No
2017/12/22,18:30,0.341,0.207,0.350,0.326,0.307,0.171,0.102,southwest,5.5,No
2017/12/22,18:40,0.341,0.206,0.348,0.325,0.307,0.171,0.103,west-southwest,4.8,No
2017/12/22,18:50,0.338,0.207,0.347,0.326,0.308,0.171,0.103,west-southwest,4.2,No
2017/12/22,19:00,0.342,0.208,0.348,0.326,0.308,0.171,0.102,west,3.7,No
2017/12/22,19:10,0.340,0.206,0.349,0.325,0.308,0.171,0.102,west,4.1,No
2017/12/22,19:20,0.340,0.208,0.348,0.326,0.307,0.171,0.103,west,4.0,No
2017/12/22,19:30,0.341,0.208,0.348,0.325,0.308,0.172,0.103,west,6.2,No
2017/12/22,19:40,0.341,0.208,0.348,0.326,0.310,0.171,0.103,west-southwest,6.6,No
2017/12/22,19:50,0.341,0.208,0.349,0.326,0.308,0.171,0.103,west-southwest,7.0,No
2017/12/22,20:00,0.339,0.207,0.347,0.326,0.308,0.172,0.103,west-southwest,7.3,No
2017/12/22,20:10,0.341,0.208,0.348,0.325,0.307,0.171,0.103,west-southwest,6.8,No
2017/12/22,20:20,0.342,0.207,0.349,0.325,0.307,0.172,0.102,west-southwest,7.3,No
2017/12/22,20:30,0.342,0.208,0.350,0.326,0.308,0.172,0.102,west-southwest,7.3,No
2017/12/22,20:40,0.342,0.208,0.348,0.325,0.307,0.172,0.103,west-southwest,6.8,No
2017/12/22,20:50,0.341,0.208,0.348,0.326,0.307,0.171,0.102,west-southwest,6.7,No
2017/12/22,21:00,0.341,0.208,0.348,0.325,0.308,0.171,0.103,west-southwest,6.5,No
2017/12/22,21:10,0.341,0.207,0.350,0.326,0.307,0.172,0.102,west-southwest,6.1,No
2017/12/22,21:20,0.341,0.208,0.349,0.326,0.308,0.172,0.102,west-southwest,5.0,No
2017/12/22,21:30,0.341,0.208,0.347,0.326,0.309,0.171,0.103,west-southwest,4.8,No
2017/12/22,21:40,0.341,0.207,0.349,0.326,0.308,0.172,0.104,west,4.3,No
2017/12/22,21:50,0.342,0.208,0.350,0.326,0.307,0.171,0.102,west-southwest,4.6,No
2017/12/22,22:00,0.341,0.207,0.347,0.327,0.308,0.172,0.102,west-southwest,5.1,No
2017/12/22,22:10,0.341,0.208,0.346,0.326,0.308,0.171,0.103,west-southwest,5.2,No
2017/12/22,22:20,0.342,0.208,0.348,0.324,0.308,0.172,0.103,west-southwest,5.7,No
2017/12/22,22:30,0.342,0.207,0.349,0.326,0.308,0.172,0.103,west-southwest,6.9,No
2017/12/22,22:40,0.341,0.207,0.347,0.327,0.307,0.172,0.102,west-southwest,6.8,No
2017/12/22,22:50,0.341,0.207,0.348,0.325,0.308,0.172,0.102,west-southwest,5.7,No
2017/12/22,23:00,0.340,0.208,0.349,0.326,0.307,0.171,0.103,west-southwest,5.6,No
2017/12/22,23:10,0.341,0.207,0.349,0.326,0.308,0.172,0.103,west-southwest,4.8,No
2017/12/22,23:20,0.341,0.208,0.348,0.326,0.307,0.172,0.103,west-southwest,4.8,No
2017/12/22,23:30,0.341,0.208,0.348,0.326,0.308,0.170,0.102,west-southwest,4.8,No
2017/12/22,23:40,0.342,0.207,0.349,0.326,0.306,0.171,0.103,west-southwest,5.4,No
2017/12/22,23:50,0.340,0.207,0.348,0.325,0.307,0.171,0.103,southwest,6.2,No
